User: anonymous
Location: Unspecified
(0.0000°N, 0.0000°E)
Time: 05:56:01
(UTC+02:00)
Language:

NOAA 12 - Orbit

View from above orbital plane
View from above orbital plane
View from above satellite
View from above satellite

Ground track
Ground track

The orbit data is extracted from the following two-line orbital elements,

1 21263U 91032A   14114.32674045  .00000114  00000-0  66636-4 0  2463
2 21263 098.6676 141.7826 0014105 039.5128 088.1123 14.25652687192883
Epoch (UTC): 24 April 2014 07:50:30
Eccentricity: 0.0014105
inclination: 98.6676°
perigee height: 796 km
apogee height: 816 km
right ascension of ascending node: 141.7826°
argument of perigee: 39.5128°
revolutions per day: 14.25652687
mean anomaly at epoch: 88.1123°
orbit number at epoch: 19288

The dashed part of the orbit path shows where the satellite is in the earth's shadow,  

DLR